Weather History for KAHN - December, 2012

Change the Weather History Date:

Tuesday, December 25, 2012

  Actual Average Record
Temperature  
Mean Temperature 51 °F 44 °F  
Max Temperature 52 °F 54 °F 77 °F (1982)
Min Temperature 49 °F 34 °F 3 °F (1983)
Degree Days  
Heating Degree Days 14 21  
Month to date heating degree days 319 480  
Since 1 July heating degree days 843 960  
Moisture  
Dew Point 50 °F    
Average Humidity 97    
Maximum Humidity 100    
Minimum Humidity 93    
Precipitation  
Precipitation 0.27 in 0.12 in 2.27 in (1945)
Month to date precipitation 3.77 3.02  
Year to date precipitation 35.27 45.62  
Snow  
Snow 0.00 in 0.10 in 2.00 in (2010)
Month to date snowfall 0.0 0.1  
Since 1 July snowfall 0.0 0.1  
Snow Depth -    
Sea Level Pressure  
Sea Level Pressure 29.97 in    
Wind  
Wind Speed 7 mph (East)    
Max Wind Speed 17 mph    
Max Gust Speed 24 mph    
Visibility 2 miles    
Events Fog , Rain    
T = Trace of Precipitation, MM = Missing Value Source: NWS Daily Summary

Daily Weather History Graph

Daily Weather History Graph

Search for Another Location

Airport or City:

Trip Planner

Search our weather history database for the weather conditions in past years. The results will help you decide how hot, cold, wet, or windy it might be!

Date:

Astronomy

Dec. 25, 2012 Rise Set
Actual Time 7:36 AM EST 5:30 PM EST
Civil Twilight 7:08 AM EST 5:58 PM EST
Nautical Twilight 6:37 AM EST 6:29 PM EST
Astronomical Twilight 6:07 AM EST 7:00 PM EST
Moon 3:36 PM EST (12/25) 5:10 AM EST (12/25)
Length of Visible Light 10h 49m
Length of Day
9h 54m
Waxing Gibbous, 93% of the Moon is Illuminated
Dec 25
Waxing Gibbous
Dec 28
Full
Jan 4
Last Quarter
Jan 11
New
Jan 18
First Quarter

Hourly Weather History & Observations

Time (EST) Temp. Dew Point Humidity Pressure Visibility Wind Dir Wind Speed Gust Speed Precip Events Conditions
12:51 AM 48.9 °F 48.9 °F 100% 29.95 in 0.2 mi Calm Calm - N/A Fog Fog
1:51 AM 48.9 °F 48.9 °F 100% 29.96 in 0.2 mi Calm Calm - N/A Fog Fog
2:51 AM 48.9 °F 48.9 °F 100% 29.96 in 0.2 mi WNW 3.5 mph - N/A Fog Fog
3:51 AM 48.9 °F 48.0 °F 97% 29.97 in 0.5 mi Calm Calm - N/A Fog Fog
4:08 AM 48.2 °F 48.2 °F 100% 29.96 in 0.5 mi Calm Calm - N/A Fog Fog
4:51 AM 48.9 °F 48.9 °F 100% 29.96 in 0.5 mi Calm Calm - N/A Fog Fog
5:01 AM 48.2 °F 48.2 °F 100% 29.96 in 0.5 mi Calm Calm - N/A Fog Fog
5:51 AM 48.9 °F 48.9 °F 100% 29.97 in 0.5 mi Calm Calm - N/A Fog Fog
6:51 AM 48.9 °F 48.9 °F 100% 30.00 in 0.2 mi Calm Calm - N/A Fog Fog
7:51 AM 50.0 °F 48.9 °F 96% 30.01 in 0.2 mi ENE 3.5 mph - N/A Fog Fog
8:51 AM 50.0 °F 50.0 °F 100% 30.03 in 0.2 mi ESE 4.6 mph - N/A Fog Fog
9:51 AM 51.1 °F 51.1 °F 100% 30.03 in 0.2 mi SE 5.8 mph - N/A Fog Fog
10:23 AM 51.8 °F 51.8 °F 100% 30.03 in 1.0 mi ESE 6.9 mph - N/A   Overcast
10:30 AM 50.0 °F 50.0 °F 100% 30.03 in 0.5 mi SE 6.9 mph - N/A Fog Fog
10:51 AM 51.1 °F 51.1 °F 100% 30.04 in 0.8 mi ESE 3.5 mph - N/A   Overcast
11:01 AM 51.8 °F 51.8 °F 100% 30.03 in 0.5 mi East 5.8 mph - N/A Fog Fog
11:07 AM 51.8 °F 51.8 °F 100% 30.02 in 1.0 mi ESE 8.1 mph - N/A   Overcast
11:22 AM 51.8 °F 51.8 °F 100% 30.02 in 0.8 mi East 9.2 mph - N/A   Overcast
11:51 AM 51.1 °F 51.1 °F 100% 30.03 in 1.2 mi East 5.8 mph - N/A   Overcast
12:00 PM 51.8 °F 51.8 °F 100% 30.01 in 1.5 mi East 5.8 mph - N/A   Overcast
12:19 PM 51.8 °F 51.8 °F 100% 30.02 in 1.2 mi ENE 5.8 mph - N/A   Overcast
12:27 PM 51.8 °F 51.8 °F 100% 30.02 in 2.0 mi East 5.8 mph - N/A   Overcast
12:38 PM 51.8 °F 51.8 °F 100% 30.03 in 3.0 mi East 5.8 mph - N/A   Overcast
12:51 PM 52.0 °F 52.0 °F 100% 30.02 in 2.5 mi ESE 5.8 mph - N/A   Overcast
1:20 PM 51.8 °F 51.8 °F 100% 30.02 in 1.8 mi East 5.8 mph - N/A   Overcast
1:41 PM 51.8 °F 51.8 °F 100% 30.01 in 1.0 mi ESE 5.8 mph - N/A   Overcast
1:51 PM 52.0 °F 52.0 °F 100% 30.01 in 1.0 mi ESE 8.1 mph - N/A   Overcast
2:42 PM 51.8 °F 51.8 °F 100% 29.96 in 1.5 mi East 9.2 mph - N/A   Overcast
2:51 PM 52.0 °F 51.1 °F 97% 29.96 in 1.8 mi ENE 9.2 mph - N/A   Overcast
3:33 PM 51.8 °F 50.0 °F 94% 29.96 in 2.5 mi ENE 9.2 mph - N/A   Overcast
3:51 PM 51.1 °F 50.0 °F 96% 29.97 in 1.8 mi ENE 11.5 mph - N/A   Overcast
4:51 PM 50.0 °F 48.9 °F 96% 30.00 in 1.8 mi ENE 9.2 mph - 0.06 in Rain Rain
5:00 PM 50.0 °F 48.2 °F 94% 30.00 in 3.0 mi NE 8.1 mph - 0.02 in Rain Light Rain
5:08 PM 50.0 °F 48.2 °F 94% 29.99 in 4.0 mi ENE 10.4 mph - 0.02 in Rain Light Rain
5:51 PM 48.9 °F 48.0 °F 97% 29.94 in 8.0 mi ENE 12.7 mph - 0.03 in   Overcast
6:51 PM 48.9 °F 48.0 °F 97% 29.95 in 9.0 mi East 10.4 mph - N/A   Overcast
7:51 PM 48.9 °F 48.9 °F 100% 29.94 in 5.0 mi East 10.4 mph - N/A   Overcast
8:06 PM 48.2 °F 48.2 °F 100% 29.93 in 5.0 mi East 10.4 mph - N/A   Overcast
8:51 PM 50.0 °F 48.9 °F 96% 29.93 in 5.0 mi East 11.5 mph - 0.00 in Rain Light Rain
9:27 PM 50.0 °F 48.2 °F 94% 29.90 in 4.0 mi East 12.7 mph 20.7 mph 0.02 in Rain Light Rain
9:38 PM 50.0 °F 48.2 °F 94% 29.89 in 2.5 mi East 13.8 mph - 0.04 in Rain Light Rain
9:51 PM 50.0 °F 48.9 °F 96% 29.89 in 2.5 mi East 13.8 mph 20.7 mph 0.05 in Rain Light Rain
10:00 PM 50.0 °F 48.2 °F 94% 29.87 in 4.0 mi East 13.8 mph 20.7 mph 0.01 in Rain Light Rain
10:46 PM 50.0 °F 48.2 °F 94% 29.86 in 6.0 mi ESE 10.4 mph 18.4 mph 0.01 in   Overcast
10:51 PM 50.0 °F 48.9 °F 96% 29.85 in 6.0 mi East 13.8 mph - 0.01 in   Overcast
11:41 PM 50.0 °F 50.0 °F 100% 29.82 in 2.0 mi East 11.5 mph - 0.02 in Rain Rain
11:51 PM 50.0 °F 50.0 °F 100% 29.83 in 2.0 mi ESE 10.4 mph - 0.08 in Rain Heavy Rain